This is the latest recevied weather packets stored in our database for station/object PY2XH-13. If no packets are shown the sender has not sent any weather packets the latest 10 day(s).
| Time | Temp. | Humidity | Pressure | Rain* | Wind** | Luminosity | Snow |
|---|---|---|---|---|---|---|---|
| 1777812364 | 22.78° C | 61% | 1037.2 hPa | - | - | - | - |
| 1777810564 | 22.78° C | 62% | 1036.9 hPa | - | - | - | - |
| 1777808764 | 22.78° C | 63% | 1036.4 hPa | - | - | - | - |
| 1777806964 | 22.78° C | 63% | 1036 hPa | - | - | - | - |
| 1777805164 | 23.33° C | 63% | 1035.5 hPa | - | - | - | - |
| 1777803364 | 22.78° C | 64% | 1035 hPa | - | - | - | - |
| 1777801565 | 23.33° C | 65% | 1034.5 hPa | - | - | - | - |
| 1777799764 | 23.33° C | 63% | 1034.2 hPa | - | - | - | - |
| 1777797964 | 23.33° C | 63% | 1033.8 hPa | - | - | - | - |
| 1777796164 | 23.33° C | 63% | 1033.4 hPa | - | - | - | - |
| 1777794364 | 23.33° C | 63% | 1033.3 hPa | - | - | - | - |
| 1777792564 | 23.33° C | 62% | 1032.8 hPa | - | - | - | - |
| 1777790765 | 22.78° C | 63% | 1032.9 hPa | - | - | - | - |
| 1777788965 | 23.33° C | 60% | 1032.7 hPa | - | - | - | - |
| 1777787165 | 23.33° C | 59% | 1033.3 hPa | - | - | - | - |
| 1777785364 | 23.33° C | 57% | 1033.4 hPa | - | - | - | - |
| 1777783564 | 23.33° C | 55% | 1033.6 hPa | - | - | - | - |
| 1777781765 | 23.33° C | 54% | 1033.7 hPa | - | - | - | - |
| 1777779965 | 23.33° C | 53% | 1033.4 hPa | - | - | - | - |
| 1777778165 | 23.89° C | 52% | 1033.4 hPa | - | - | - | - |
| 1777776365 | 23.89° C | 51% | 1033.4 hPa | - | - | - | - |
| 1777774565 | 23.33° C | 50% | 1034.1 hPa | - | - | - | - |
| 1777772764 | 23.33° C | 49% | 1034.4 hPa | - | - | - | - |
| 1777770965 | 23.89° C | 51% | 1034.4 hPa | - | - | - | - |
| 1777769164 | 23.89° C | 52% | 1034.3 hPa | - | - | - | - |
* Rain since midnight (hover to see other rain measurements)
** Current wind speed in m/s (hover to see current wind gust speed)